"Timestamp","TZ","WindDir_Mean (deg)","WindSpd_Mean (km/h)","WindSpd_Min (km/h)","WindSpd_Max (km/h)","Temp_Mean (deg)","RH_Mean (%)","MSLP_Mean (hPa)","Rain_Acc (mm)","Rain_Intensity (mm/h)","Hail_Acc (hits/cm2)","Hail_Intensity (hits/cm2hr)","Solar_Mean (W/m2)"
2022/01/08 00:00:00.002,n,94,12.24,5.04,16.56,24.8,76.2,1012.02,0,0,0,0,0.029602
2022/01/08 00:01:00.000,n,58,7.2,5.4,10.8,24.8,76.2,1012.02,0,0,0,0,0.029602
2022/01/08 00:02:00.000,n,31,12.24,11.52,13.68,24.8,76.2,1012.02,0,0,0,0,0.030479
2022/01/08 00:03:00.011,n,54,20.16,16.56,23.04,24.8,76.2,1011.92,0,0,0,0,0.032196
2022/01/08 00:04:00.007,n,48,6.48,0,10.08,24.8,76.2,1011.92,0,0,0,0,0.031357
2022/01/08 00:05:00.005,n,50,7.2,6.48,7.92,24.8,76.2,1011.92,0,0,0,0,0.030479
2022/01/08 00:06:00.001,n,72,5.76,3.24,9.72,24.8,76,1011.92,0,0,0,0,0.031357
2022/01/08 00:07:00.000,n,26,13.32,10.08,16.919998,24.8,76.1,1011.82,0,0,0,0,0.031357
2022/01/08 00:08:00.013,n,42,9.36,8.28,10.440002,24.8,76.1,1011.92,0,0,0,0,0.030479
2022/01/08 00:09:00.037,n,106,12.24,10.440002,14.4,24.8,76.1,1011.82,0,0,0,0,0.030479
2022/01/08 00:10:00.000,n,53,4.32,1.44,8.64,24.8,75.9,1011.92,0,0,0,0,0.027847
2022/01/08 00:11:00.000,n,38,7.56,5.4,10.08,24.8,76,1011.92,0,0,0,0,0.033073
2022/01/08 00:12:00.000,n,40,14.04,10.8,18.359998,24.8,75.9,1011.82,0,0,0,0,0.030479
2022/01/08 00:13:00.002,n,84,9.36,5.04,11.88,24.9,75.9,1011.92,0,0,0,0,0.033073
2022/01/08 00:14:00.000,n,66,9.36,8.64,10.08,24.9,75.9,1011.92,0,0,0,0,0.028725
2022/01/08 00:15:00.000,n,107,15.84,14.4,19.08,24.9,75.8,1011.92,0,0,0,0,0.031357
2022/01/08 00:16:00.011,n,61,11.88,7.2,18.72,24.9,75.6,1011.92,0,0,0,0,0.032196
2022/01/08 00:17:00.008,n,54,14.04,11.16,19.44,24.9,75.5,1011.92,0,0,0,0,0.032196
2022/01/08 00:18:00.005,n,52,11.16,8.64,18.359998,24.9,75.3,1011.92,0,0,0,0,0.033951
2022/01/08 00:19:00.000,n,65,6.84,2.16,10.08,24.9,75.3,1011.92,0,0,0,0,0.032196
2022/01/08 00:20:00.000,n,34,11.52,10.8,12.24,24.9,75.3,1011.92,0,0,0,0,0.033951
2022/01/08 00:21:00.000,n,36,9.72,7.56,11.88,24.9,75.2,1011.92,0,0,0,0,0.032196
2022/01/08 00:22:00.000,n,68,5.76,2.52,7.92,24.9,75.2,1011.92,0,0,0,0,0.031357
2022/01/08 00:23:00.008,n,86,9.36,6.48,14.04,24.9,75.1,1011.92,0,0,0,0,0.030479
2022/01/08 00:24:00.020,n,59,5.04,2.52,10.440002,24.9,75.2,1011.92,0,0,0,0,0.030479
2022/01/08 00:25:00.002,n,86,9.72,2.88,12.6,24.9,75.1,1011.92,0,0,0,0,0.031357
2022/01/08 00:26:00.013,n,87,11.16,7.56,15.12,24.9,75,1011.92,0,0,0,0,0.032196
2022/01/08 00:27:00.010,n,59,7.56,6.48,7.92,24.9,75,1011.92,0,0,0,0,0.028725
2022/01/08 00:28:00.000,n,44,3.24,1.44,9.72,24.9,75,1011.92,0,0,0,0,0.033073
2022/01/08 00:29:00.004,n,22,7.2,6.48,7.92,24.9,75,1011.92,0,0,0,0,0.030479
2022/01/08 00:30:00.000,n,56,15.48,9.72,19.8,24.9,75,1011.92,0,0,0,0,0.030479
2022/01/08 00:31:00.000,n,73,10.8,7.92,13.32,24.9,75,1011.92,0,0,0,0,0.026131
2022/01/08 00:32:00.008,n,57,3.6,2.16,5.4,24.9,75,1011.92,0,0,0,0,0.033951
2022/01/08 00:33:00.006,n,76,6.48,3.96,10.08,24.9,74.9,1011.92,0,0,0,0,0.033951
2022/01/08 00:34:00.003,n,84,9.72,6.12,11.88,24.9,74.9,1011.92,0,0,0,0,0.030479
2022/01/08 00:35:00.001,n,78,6.48,3.24,9.36,24.9,74.9,1011.92,0,0,0,0,0.029602
2022/01/08 00:36:00.015,n,68,4.68,1.8,6.12,24.9,74.9,1011.92,0,0,0,0,0.026131
2022/01/08 00:37:00.012,n,123,9.72,7.56,12.6,24.9,75,1011.82,0,0,0,0,0.029602
2022/01/08 00:38:00.000,n,40,9.36,6.12,12.96,24.9,75,1011.82,0,0,0,0,0.028725
2022/01/08 00:39:00.000,n,99,14.76,12.96,16.2,24.9,75,1011.82,0,0,0,0,0.031357
2022/01/08 00:40:00.000,n,120,8.28,4.68,11.16,24.9,75,1011.82,0,0,0,0,0.032196
2022/01/08 00:41:00.007,n,57,19.08,16.2,22.68,24.9,75,1011.82,0,0,0,0,0.031357
2022/01/08 00:42:00.005,n,61,7.2,6.12,7.92,24.9,75,1011.82,0.01,0,0,0,0.031357
2022/01/08 00:43:00.010,n,41,4.68,2.16,6.84,24.9,75.2,1011.82,0.06,1.3,0,0,0.029602
2022/01/08 00:44:00.000,n,31,3.96,1.44,4.32,24.9,75.8,1011.82,0.2,8.8,0,0,0.028725
2022/01/08 00:45:00.014,n,105,12.96,11.16,14.04,24.8,76.1,1011.82,0.23,3.1,0,0,0.030479
2022/01/08 00:46:00.000,n,43,12.6,9.72,15.84,24.8,76.5,1011.82,0.3,2.7,0,0,0.032196
2022/01/08 00:47:00.005,n,15,4.32,1.44,6.84,24.7,77.3,1011.92,0.33,3.3,0,0,0.031357
2022/01/08 00:48:00.000,n,39,6.84,6.12,7.92,24.6,77.7,1011.92,0.43,5.7,0,0,0.032196
2022/01/08 00:49:00.003,n,37,9.72,5.76,11.52,24.6,77.9,1011.92,0.43,0.3,0,0,0.032196
2022/01/08 00:50:00.001,n,37,9.36,8.28,11.16,24.5,78.2,1011.82,0.43,0,0,0,0.033951
2022/01/08 00:51:00.000,n,23,13.32,5.4,18.359998,24.5,78.3,1011.72,0.43,0,0,0,0.030479
2022/01/08 00:52:00.013,n,21,7.2,3.96,10.8,24.4,78.3,1011.82,0.43,0,0,0,0.031357
2022/01/08 00:53:00.009,n,40,12.96,12.24,14.4,24.4,78.3,1011.82,0.43,0,0,0,0.029602
2022/01/08 00:54:00.007,n,27,8.28,5.76,11.88,24.4,78.6,1011.82,0.43,0,0,0,0.027847
2022/01/08 00:55:00.000,n,74,14.4,9.36,16.919998,24.4,78.4,1011.82,0.43,0,0,0,0.02697
2022/01/08 00:56:00.000,n,55,4.68,3.24,6.48,24.4,78.6,1011.72,0.43,0,0,0,0.027847
2022/01/08 00:57:00.004,n,37,9.72,7.56,12.6,24.4,78.7,1011.72,0.43,0,0,0,0.026131
2022/01/08 00:58:00.000,n,89,8.64,7.2,11.16,24.4,78.9,1011.72,0.43,0,0,0,0.02697
2022/01/08 00:59:00.000,n,41,9,7.56,11.88,24.4,78.9,1011.72,0.43,0,0,0,0.023499
2022/01/08 01:00:00.011,n,113,10.08,9,11.88,24.3,79,1011.72,0.43,0,0,0,0.023499
2022/01/08 01:01:00.010,n,67,10.08,6.48,11.16,24.3,79,1011.62,0.43,0,0,0,0.018272
2022/01/08 01:02:00.007,n,66,11.52,7.92,12.96,24.3,78.9,1011.62,0.43,0,0,0,0.02697
2022/01/08 01:03:00.000,n,109,9.36,8.28,11.52,24.3,78.9,1011.62,0.43,0,0,0,0.033073
2022/01/08 01:04:00.000,n,69,17.64,14.4,20.880002,24.3,78.9,1011.62,0.43,0,0,0,0.033073
2022/01/08 01:05:00.000,n,83,9.36,8.64,10.08,24.3,79,1011.62,0.43,0.1,0,0,0.031319
2022/01/08 01:06:00.034,n,45,10.08,6.84,11.88,24.3,79.2,1011.62,0.43,0,0,0,0.033951
2022/01/08 01:07:00.006,n,24,8.28,6.48,10.08,24.3,79.5,1011.62,0.43,0,0,0,0.026131
2022/01/08 01:08:00.006,n,44,11.88,10.8,13.68,24.3,79.7,1011.52,0.43,0,0,0,0.027847
2022/01/08 01:09:00.005,n,35,12.96,11.88,14.04,24.3,79.9,1011.52,0.43,0,0,0,0.026131
2022/01/08 01:10:00.004,n,88,8.28,5.04,9.72,24.2,80,1011.52,0.43,0,0,0,0.026131
2022/01/08 01:11:00.001,n,46,5.04,3.6,6.12,24.2,80.2,1011.52,0.43,0,0,0,0.024338
2022/01/08 01:12:00.016,n,56,6.12,2.88,9.36,24.2,80.5,1011.52,0.43,0,0,0,0.02697
2022/01/08 01:13:00.000,n,42,9.36,7.56,11.88,24.2,80.5,1011.42,0.43,0,0,0,0.022621
2022/01/08 01:14:00.000,n,196,2.52,1.08,4.32,24.2,80.7,1011.42,0.43,0,0,0,0.024338
2022/01/08 01:15:00.000,n,131,2.16,1.08,3.6,24.1,80.9,1011.42,0.44,0,0,0,0.022621
2022/01/08 01:16:00.006,n,80,10.08,6.48,12.24,24.1,81,1011.42,0.44,0,0,0,0.020905
2022/01/08 01:17:00.002,n,77,12.24,10.440002,13.32,24.1,81,1011.42,0.44,0,0,0,0.021744
2022/01/08 01:18:00.000,n,30,6.12,3.6,7.56,24.1,81.2,1011.42,0.44,0,0,0,0.027885
2022/01/08 01:19:00.006,n,37,13.32,12.6,14.04,24.1,81.2,1011.42,0.44,0,0,0,0.030479
2022/01/08 01:20:00.004,n,102,7.92,7.2,8.28,24.1,81.4,1011.32,0.44,0,0,0,0.028725
2022/01/08 01:21:00.001,n,36,10.8,7.92,14.4,24.1,81.4,1011.32,0.44,0,0,0,0.02697
2022/01/08 01:22:00.000,n,53,9,7.56,11.16,24.1,81.3,1011.32,0.44,0.1,0,0,0.029602
2022/01/08 01:23:00.041,n,132,7.56,5.4,9,24.1,81.3,1011.32,0.44,0,0,0,0.028725
2022/01/08 01:24:00.000,n,24,7.2,4.68,9.72,24.1,81.5,1011.32,0.44,0,0,0,0.028725
2022/01/08 01:25:00.000,n,38,12.96,11.52,14.4,24.1,81.5,1011.32,0.45,0.2,0,0,0.029602
2022/01/08 01:26:00.006,n,41,11.88,7.2,13.68,24.1,81.5,1011.32,0.45,0.1,0,0,0.027885
2022/01/08 01:27:00.003,n,43,7.92,4.32,12.24,24.1,81.8,1011.32,0.45,0.1,0,0,0.026093
2022/01/08 01:28:00.003,n,39,12.96,11.52,13.68,24.1,81.6,1011.22,0.46,0.3,0,0,0.027885
2022/01/08 01:29:00.000,n,33,14.76,13.32,16.919998,24,81.8,1011.22,0.48,1.2,0,0,0.022659
2022/01/08 01:30:00.001,n,54,6.84,3.96,9.36,24,82.1,1011.22,0.48,0,0,0,0.024376
2022/01/08 01:31:00.000,n,65,10.8,8.64,13.32,24,82.2,1011.12,0.48,0.1,0,0,0.026093
2022/01/08 01:32:00.000,n,59,13.68,11.88,15.12,24,82.2,1011.12,0.48,0,0,0,0.022659
2022/01/08 01:33:00.000,n,76,14.4,11.16,16.919998,24,82.3,1011.12,0.48,0,0,0,0.025253
2022/01/08 01:34:00.000,n,40,14.04,12.24,18,23.9,82.4,1011.12,0.48,0,0,0,0.024376
2022/01/08 01:35:00.006,n,56,10.440002,7.2,13.32,23.9,82.5,1011.12,0.5,0.7,0,0,0.023499
2022/01/08 01:36:00.005,n,44,15.84,14.76,17.64,23.9,82.5,1011.12,0.5,0.1,0,0,0.023499
2022/01/08 01:37:00.001,n,55,12.24,7.2,14.04,23.9,82.6,1011.12,0.5,0,0,0,0.022659
2022/01/08 01:38:00.000,n,48,15.12,14.04,15.84,23.9,82.7,1011.12,0.5,0.1,0,0,0.023499
2022/01/08 01:39:00.013,n,90,12.6,10.8,16.56,23.9,82.7,1011.12,0.5,0,0,0,0.020905
2022/01/08 01:40:00.000,n,79,19.44,14.76,20.880002,23.9,82.8,1011.02,0.5,0,0,0,0.021744
2022/01/08 01:41:00.000,n,48,11.16,9.72,12.6,23.9,82.9,1011.12,0.5,0,0,0,0.020905
2022/01/08 01:42:00.005,n,49,13.32,12.24,14.76,23.9,82.8,1011.12,0.5,0,0,0,0.025215
2022/01/08 01:43:00.006,n,57,7.2,4.32,8.64,23.9,82.8,1011.12,0.5,0,0,0,0.027847
2022/01/08 01:44:00.002,n,60,4.32,3.24,5.76,23.9,82.9,1011.22,0.5,0,0,0,0.027847
2022/01/08 01:45:00.000,n,41,2.52,1.08,5.76,23.9,82.9,1011.22,0.5,0,0,0,0.028725
2022/01/08 01:46:00.013,n,40,9,7.56,10.08,23.9,83,1011.22,0.5,0,0,0,0.027847
2022/01/08 01:47:00.010,n,65,9,7.56,10.08,23.9,83,1011.22,0.5,0,0,0,0.023499
2022/01/08 01:48:00.007,n,46,7.56,7.2,8.28,23.9,83.1,1011.22,0.5,0,0,0,0.02697
2022/01/08 01:49:00.000,n,75,7.2,6.12,8.64,23.9,83.1,1011.22,0.5,0,0,0,0.027847
2022/01/08 01:50:00.000,n,71,10.440002,9.36,11.88,23.8,83,1011.22,0.5,0,0,0,0.023499
2022/01/08 01:51:00.001,n,43,7.56,6.12,8.64,23.8,83.1,1011.12,0.5,0,0,0,0.02697
2022/01/08 01:52:00.000,n,58,11.52,8.28,13.32,23.8,83.1,1011.12,0.5,0,0,0,0.024338
2022/01/08 01:53:00.000,n,42,2.16,1.08,2.88,23.8,83.1,1011.12,0.5,0,0,0,0.023499
2022/01/08 01:54:00.008,n,31,11.88,10.08,13.32,23.8,83.1,1011.22,0.52,0.9,0,0,0.025215
2022/01/08 01:55:00.008,n,34,10.8,7.56,14.04,23.8,83,1011.22,0.53,1,0,0,0.026093
2022/01/08 01:56:00.003,n,50,5.4,4.32,6.84,23.8,83.2,1011.22,0.54,0,0,0,0.025215
2022/01/08 01:57:00.002,n,41,5.4,4.68,6.84,23.9,83.2,1011.22,0.54,0,0,0,0.023499
2022/01/08 01:58:00.000,n,79,10.08,8.64,11.16,23.9,83.3,1011.22,0.54,0,0,0,0.026093
2022/01/08 01:59:00.000,n,39,7.2,5.76,8.28,23.9,83.4,1011.22,0.54,0,0,0,0.026093
2022/01/08 02:00:00.005,n,31,7.92,5.04,9,23.9,83.5,1011.22,0.54,0.3,0,0,0.026093
2022/01/08 02:01:00.002,n,83,9.72,7.2,11.52,23.9,83.5,1011.22,0.6,3.2,0,0,0.027847
2022/01/08 02:02:00.000,n,71,6.48,5.4,7.2,23.8,83.6,1011.22,0.61,0.7,0,0,0.026093
2022/01/08 02:03:00.000,n,74,11.52,7.92,12.6,23.8,83.5,1011.12,0.61,0,0,0,0.024338
2022/01/08 02:04:00.012,n,95,9.36,7.92,10.08,23.8,83.6,1011.22,0.61,0,0,0,0.025215
2022/01/08 02:05:00.009,n,83,6.84,5.76,8.64,23.8,83.7,1011.22,0.61,0,0,0,0.024338
2022/01/08 02:06:00.006,n,32,12.6,11.16,14.4,23.8,83.8,1011.22,0.61,0,0,0,0.023499
2022/01/08 02:07:00.000,n,25,9.72,7.2,14.04,23.8,83.9,1011.22,0.61,0,0,0,0.024338
2022/01/08 02:08:00.002,n,79,5.76,5.4,6.12,23.8,83.9,1011.22,0.61,0,0,0,0.020866
2022/01/08 02:09:00.000,n,113,7.92,7.56,8.28,23.8,84,1011.12,0.61,0,0,0,0.021744
2022/01/08 02:10:00.000,n,71,6.12,5.04,6.84,23.8,84.1,1011.12,0.61,0,0,0,0.022621
2022/01/08 02:11:00.008,n,67,5.76,4.32,7.2,23.8,84.3,1011.12,0.61,0,0,0,0.021744
2022/01/08 02:12:00.009,n,68,5.04,3.6,5.76,23.8,84.3,1011.12,0.61,0,0,0,0.020866
2022/01/08 02:13:00.008,n,48,5.04,4.32,6.84,23.7,84.4,1011.12,0.61,0,0,0,0.020866
2022/01/08 02:14:00.005,n,73,6.48,3.96,9.36,23.7,84.5,1011.12,0.61,0,0,0,0.022621
2022/01/08 02:15:00.036,n,75,6.48,5.4,7.56,23.7,84.6,1011.02,0.61,0,0,0,0.021744
2022/01/08 02:16:00.002,n,29,7.92,5.76,10.08,23.7,84.6,1011.02,0.61,0,0,0,0.021744
2022/01/08 02:17:00.000,n,75,6.48,4.68,10.08,23.7,84.7,1010.92,0.61,0,0,0,0.022621
2022/01/08 02:18:00.041,n,36,4.68,3.6,5.4,23.7,84.7,1010.92,0.61,0,0,0,0.019989
2022/01/08 02:19:00.000,n,14,4.32,2.88,5.04,23.7,84.8,1010.92,0.61,0,0,0,0.022621
2022/01/08 02:20:00.008,n,77,8.64,6.84,10.440002,23.7,84.8,1010.92,0.61,0,0,0,0.019989
2022/01/08 02:21:00.005,n,51,13.32,11.52,14.4,23.7,84.7,1010.92,0.61,0,0,0,0.021744
2022/01/08 02:22:00.001,n,79,4.68,3.6,5.76,23.6,84.7,1010.92,0.61,0,0,0,0.022621
2022/01/08 02:23:00.006,n,73,11.88,9.36,14.4,23.6,84.7,1010.92,0.61,0,0,0,0.022621
2022/01/08 02:24:00.002,n,98,6.84,4.68,8.64,23.6,84.7,1010.92,0.61,0,0,0,0.020866
2022/01/08 02:25:00.000,n,110,11.88,7.92,15.48,23.6,84.8,1010.82,0.61,0,0,0,0.021744
2022/01/08 02:26:00.000,n,71,11.52,9.72,14.04,23.7,84.7,1010.82,0.61,0,0,0,0.021744
2022/01/08 02:27:00.000,n,79,7.56,6.84,8.28,23.7,84.8,1010.82,0.61,0,0,0,0.019989
2022/01/08 02:28:00.000,n,65,4.68,3.24,5.76,23.7,84.8,1010.82,0.61,0,0,0,0.020866
2022/01/08 02:29:00.006,n,116,5.4,4.32,6.12,23.7,84.9,1010.72,0.61,0,0,0,0.019989
2022/01/08 02:30:00.000,n,122,1.08,0.36,2.16,23.7,84.9,1010.72,0.61,0,0,0,0.021744
2022/01/08 02:31:00.011,n,98,6.12,5.4,6.84,23.7,84.9,1010.72,0.61,0,0,0,0.020866
2022/01/08 02:32:00.008,n,56,4.32,2.16,6.48,23.7,85,1010.72,0.61,0,0,0,0.019112
2022/01/08 02:33:00.005,n,43,5.04,4.32,5.76,23.7,85,1010.72,0.61,0,0,0,0.019112
2022/01/08 02:34:00.000,n,95,5.4,4.68,6.12,23.7,85,1010.72,0.61,0,0,0,0.020866
2022/01/08 02:35:00.000,n,110,10.440002,9.36,11.88,23.7,85.1,1010.72,0.61,0,0,0,0.019989
2022/01/08 02:36:00.000,n,99,10.08,9.36,11.52,23.7,85.1,1010.72,0.66,1.8,0,0,0.020866
2022/01/08 02:37:00.005,n,112,12.24,9,14.76,23.7,85.2,1010.72,0.68,1.9,0,0,0.019989
2022/01/08 02:38:00.004,n,67,1.08,0.72,2.52,23.7,85.2,1010.72,0.68,0.4,0,0,0.018272
2022/01/08 02:39:00.002,n,100,8.28,6.84,9,23.7,85.2,1010.62,0.74,3.6,0,0,0.020866
2022/01/08 02:40:00.009,n,79,3.6,3.6,3.96,23.6,85.3,1010.62,0.74,0,0,0,0.021744
2022/01/08 02:41:00.000,n,18,5.76,4.68,6.48,23.6,85.4,1010.72,0.74,0,0,0,0.019989
2022/01/08 02:42:00.012,n,31,4.32,3.6,4.68,23.6,85.4,1010.72,0.74,0,0,0,0.019112
2022/01/08 02:43:00.001,n,61,2.52,0.72,4.32,23.6,85.6,1010.72,0.74,0,0,0,0.019989
2022/01/08 02:44:00.000,n,91,7.92,6.84,8.28,23.6,85.6,1010.72,0.74,0,0,0,0.022621
2022/01/08 02:45:00.011,n,49,1.8,0.72,2.88,23.6,85.7,1010.72,0.74,0,0,0,0.019112
2022/01/08 02:46:00.003,n,42,4.32,3.24,5.04,23.6,85.7,1010.72,0.74,0,0,0,0.021744
2022/01/08 02:47:00.005,n,23,3.24,3.24,3.6,23.6,85.7,1010.72,0.74,0,0,0,0.020866
2022/01/08 02:48:00.011,n,41,2.88,2.88,3.96,23.6,85.8,1010.72,0.74,0,0,0,0.020866
2022/01/08 02:49:00.000,n,71,2.52,2.16,2.88,23.6,85.8,1010.72,0.74,0,0,0,0.019989
2022/01/08 02:50:00.006,n,10,2.16,1.8,2.88,23.6,85.8,1010.62,0.74,0.1,0,0,0.019989
2022/01/08 02:51:00.013,n,31,3.6,3.24,3.96,23.6,85.9,1010.62,0.74,0,0,0,0.019112
2022/01/08 02:52:00.000,n,35,2.88,2.88,3.6,23.6,85.9,1010.62,0.74,0,0,0,0.020866
2022/01/08 02:53:00.000,n,106,4.68,3.96,5.04,23.6,86,1010.62,0.74,0,0,0,0.019989
2022/01/08 02:54:00.000,n,15,6.84,3.24,7.56,23.6,85.9,1010.62,0.74,0,0,0,0.019989
2022/01/08 02:55:00.004,n,132,2.88,2.52,3.6,23.6,85.9,1010.62,0.74,0,0,0,0.019989
2022/01/08 02:56:00.004,n,115,4.32,3.96,5.04,23.6,86,1010.62,0.74,0,0,0,0.020866
2022/01/08 02:57:00.000,n,130,3.24,2.52,3.6,23.6,86,1010.62,0.74,0,0,0,0.019112
2022/01/08 02:58:00.004,n,132,9,8.28,9.72,23.6,85.8,1010.62,0.74,0,0,0,0.020866
2022/01/08 02:59:00.010,n,54,3.6,2.16,5.4,23.6,85.9,1010.62,0.74,0,0,0,0.020866
2022/01/08 03:00:00.016,n,97,2.88,2.16,3.96,23.6,85.9,1010.62,0.74,0,0,0,0.019989
2022/01/08 03:01:00.000,n,116,6.12,4.32,7.92,23.6,85.9,1010.52,0.74,0,0,0,0.016518
2022/01/08 03:02:00.000,n,62,8.64,6.84,10.440002,23.6,85.9,1010.52,0.74,0,0,0,0.019989
2022/01/08 03:03:00.000,n,92,6.12,5.04,6.48,23.6,85.9,1010.52,0.74,0,0,0,0.017395
2022/01/08 03:04:00.000,n,108,9.36,8.28,11.16,23.6,85.9,1010.52,0.76,0.8,0,0,0.023499
2022/01/08 03:05:00.005,n,93,3.24,2.88,5.4,23.6,85.9,1010.52,0.76,0.2,0,0,0.020866
2022/01/08 03:06:00.000,n,90,5.4,4.32,7.2,23.6,85.8,1010.52,0.76,0,0,0,0.025215
2022/01/08 03:07:00.009,n,36,5.4,3.96,7.56,23.6,85.9,1010.52,0.76,0,0,0,0.028687
2022/01/08 03:08:00.001,n,24,7.2,4.68,9.36,23.6,85.9,1010.52,0.76,0,0,0,0.026093
2022/01/08 03:09:00.004,n,53,6.84,6.48,9.72,23.6,85.8,1010.52,0.76,0,0,0,0.030441
2022/01/08 03:10:00.000,n,28,5.4,3.6,6.84,23.6,86,1010.52,0.76,0,0,0,0.028687
2022/01/08 03:11:00.000,n,10,5.4,4.68,6.48,23.6,86,1010.62,0.76,0,0,0,0.028687
2022/01/08 03:12:00.000,n,22,6.48,6.12,7.2,23.6,86.1,1010.62,0.82,3.3,0,0,0.029564
2022/01/08 03:13:00.001,n,349,5.4,3.6,6.84,23.6,86,1010.62,0.91,5.6,0,0,0.02697
2022/01/08 03:14:00.004,n,345,5.4,4.68,6.12,23.6,85.9,1010.52,0.95,1.9,0,0,0.02697
2022/01/08 03:15:00.009,n,12,4.32,3.24,5.4,23.6,86,1010.62,1.01,3.7,0,0,0.029564
2022/01/08 03:16:00.000,n,356,5.76,4.68,6.48,23.6,86,1010.62,1.05,2.9,0,0,0.030441
2022/01/08 03:17:00.001,n,8,5.76,5.04,7.2,23.6,86,1010.62,1.17,3.9,0,0,0.02697
2022/01/08 03:18:00.007,n,27,4.68,2.52,14.04,23.6,86.3,1010.62,1.51,23.5,0,0,0.025215
2022/01/08 03:19:00.000,n,255,1.8,1.44,2.88,23.6,86.4,1010.62,1.53,1.7,0,0,0.028687
2022/01/08 03:20:00.000,n,124,2.88,1.08,18.359998,23.7,86.3,1010.62,1.53,0.3,0,0,0.024338
2022/01/08 03:21:00.000,n,22,2.88,1.8,3.24,23.7,86.4,1010.62,1.53,0.1,0,0,0.024338
2022/01/08 03:22:00.003,n,43,2.88,2.52,3.6,23.7,86.5,1010.62,1.54,0.6,0,0,0.024338
2022/01/08 03:23:00.000,n,34,1.8,1.08,2.52,23.7,86.4,1010.72,1.54,0.2,0,0,0.02697
2022/01/08 03:24:00.000,n,10,5.4,3.96,7.56,23.7,86.3,1010.72,1.55,0.5,0,0,0.027809
2022/01/08 03:25:00.002,n,15,5.04,1.08,7.2,23.7,86.2,1010.72,1.56,0.6,0,0,0.025215
2022/01/08 03:26:00.008,n,31,4.68,4.32,5.04,23.7,86.3,1010.82,1.7,8.100001,0,0,0.02697
2022/01/08 03:27:00.015,n,34,7.92,7.2,8.28,23.7,86.4,1010.82,2.32,28.4,0,0,0.028687
2022/01/08 03:28:00.000,n,353,10.8,9.72,11.52,23.7,86.5,1010.82,3.51,65.800004,0,0,0.02697
2022/01/08 03:29:00.000,n,350,12.24,10.440002,14.76,23.7,86.6,1010.82,4.6,75.7,0,0,0.02697
2022/01/08 03:30:00.036,n,5,11.88,10.440002,12.96,23.7,86.6,1010.82,4.86,22.4,0,0,0.025215
2022/01/08 03:31:00.007,n,49,7.2,2.88,12.6,23.6,85.8,1010.82,5.17,12.1,0,0,0.02697
2022/01/08 03:32:00.004,n,9,10.440002,8.28,12.24,23.4,84.8,1010.82,5.59,29.6,0,0,0.027809
2022/01/08 03:33:00.002,n,23,11.88,11.16,12.6,23.2,85.2,1010.82,5.69,8.4,0,0,0.02697
2022/01/08 03:34:00.008,n,28,10.440002,8.64,12.6,23.2,85.8,1010.92,5.7,1.2,0,0,0.028687
2022/01/08 03:35:00.000,n,26,19.8,18.359998,21.96,23.2,86.3,1010.92,5.71,0.5,0,0,0.02346
2022/01/08 03:36:00.004,n,0,16.56,15.12,16.919998,23.3,86.4,1010.92,5.72,0.2,0,0,0.018234
2022/01/08 03:37:00.000,n,48,11.88,9.72,13.68,23.3,86.4,1010.92,5.73,1,0,0,0.024338
2022/01/08 03:38:00.000,n,56,12.24,10.08,13.68,23.3,86.1,1010.92,5.74,0.8,0,0,0.02697
2022/01/08 03:39:00.002,n,33,13.32,11.16,15.84,23.4,85.9,1010.82,5.75,0.2,0,0,0.024338
2022/01/08 03:40:00.000,n,70,5.76,1.08,8.28,23.3,86,1010.82,5.76,0.5,0,0,0.022583
2022/01/08 03:41:00.000,n,33,13.68,12.24,14.76,23.3,86.1,1010.82,5.78,0.9,0,0,0.021744
2022/01/08 03:42:00.003,n,18,6.12,5.4,7.2,23.4,86.1,1010.82,5.79,1.1,0,0,0.02346
2022/01/08 03:43:00.040,n,41,5.4,1.44,8.64,23.4,86,1010.82,5.8,0.4,0,0,0.02346
2022/01/08 03:44:00.001,n,22,5.4,3.96,6.12,23.4,86.1,1010.82,5.81,0.4,0,0,0.024338
2022/01/08 03:45:00.010,n,32,11.52,9.36,12.6,23.4,86,1010.82,5.82,0.4,0,0,0.020866
2022/01/08 03:46:00.000,n,26,5.76,5.04,7.56,23.4,86.1,1010.82,5.82,0.1,0,0,0.024338
2022/01/08 03:47:00.000,n,31,9,5.76,10.08,23.4,86.1,1010.72,5.82,0.3,0,0,0.019112
2022/01/08 03:48:00.000,n,29,7.2,6.84,7.92,23.4,86.2,1010.72,5.83,0.2,0,0,0.026093
2022/01/08 03:49:00.003,n,25,7.92,3.6,9.72,23.5,86.2,1010.72,5.83,0.2,0,0,0.025253
2022/01/08 03:50:00.009,n,39,5.4,3.6,7.92,23.5,86.2,1010.72,5.83,0.1,0,0,0.024376
2022/01/08 03:51:00.000,n,49,11.16,7.92,12.96,23.5,86.2,1010.72,5.83,0.1,0,0,0.020866
2022/01/08 03:52:00.005,n,33,6.12,5.76,6.84,23.5,86.2,1010.72,5.87,1.8,0,0,0.021744
2022/01/08 03:53:00.000,n,29,7.92,7.2,9.36,23.5,86.2,1010.72,5.87,0,0,0,0.026093
2022/01/08 03:54:00.005,n,75,6.84,6.12,7.2,23.5,86.2,1010.72,5.87,0.2,0,0,0.025253
2022/01/08 03:55:00.000,n,30,5.4,3.96,7.92,23.5,86.2,1010.72,5.87,0,0,0,0.021744
2022/01/08 03:56:00.000,n,76,5.4,4.68,5.76,23.6,86.2,1010.62,5.87,0,0,0,0.022659
2022/01/08 03:57:00.000,n,30,3.6,1.44,5.4,23.6,86.2,1010.62,5.87,0,0,0,0.020866
2022/01/08 03:58:00.000,n,34,5.4,4.68,6.12,23.6,86.2,1010.72,5.87,0.2,0,0,0.020866
2022/01/08 03:59:00.003,n,35,7.2,6.48,8.28,23.6,86.2,1010.72,5.87,0,0,0,0.025253
2022/01/08 04:00:00.009,n,58,7.92,5.04,9,23.6,86.3,1010.72,5.87,0,0,0,0.022659
2022/01/08 04:01:00.000,n,37,5.4,5.04,6.84,23.6,86.2,1010.72,5.87,0,0,0,0.026093
2022/01/08 04:02:00.004,n,44,5.04,4.68,5.76,23.6,86.2,1010.72,5.87,0,0,0,0.024376
2022/01/08 04:03:00.009,n,22,6.12,5.04,6.48,23.6,86.3,1010.72,5.87,0,0,0,0.023499
2022/01/08 04:04:00.032,n,71,6.48,5.04,7.56,23.6,86.3,1010.82,5.87,0,0,0,0.020027
2022/01/08 04:05:00.000,n,47,4.68,3.96,5.76,23.6,86.3,1010.82,5.87,0,0,0,0.024376
2022/01/08 04:06:00.000,n,29,5.04,3.24,6.48,23.6,86.3,1010.82,5.87,0,0,0,0.023499
2022/01/08 04:07:00.000,n,36,7.56,6.48,8.64,23.6,86.3,1010.72,5.87,0,0,0,0.023499
2022/01/08 04:08:00.005,n,48,5.4,3.6,7.2,23.6,86.3,1010.72,5.87,0,0,0,0.025253
2022/01/08 04:09:00.010,n,76,6.12,4.68,7.2,23.7,86.3,1010.72,5.87,0,0,0,0.02697
2022/01/08 04:10:00.000,n,43,5.4,4.68,6.12,23.7,86.3,1010.72,5.88,0,0,0,0.024376
2022/01/08 04:11:00.042,n,56,5.76,5.04,7.92,23.6,86.3,1010.72,5.88,0.2,0,0,0.024376
2022/01/08 04:12:00.013,n,34,4.32,3.6,5.04,23.6,86.3,1010.72,5.89,0.4,0,0,0.025253
2022/01/08 04:13:00.000,n,105,12.96,12.24,13.32,23.6,86.3,1010.72,5.89,0.2,0,0,0.023499
2022/01/08 04:14:00.000,n,60,10.8,7.2,14.4,23.6,86.3,1010.72,5.9,0.3,0,0,0.026093
2022/01/08 04:15:00.049,n,105,10.440002,8.64,11.52,23.6,86.3,1010.72,5.91,0.4,0,0,0.021744
2022/01/08 04:16:00.000,n,66,8.64,5.04,12.24,23.6,86.2,1010.82,5.91,0.4,0,0,0.027885
2022/01/08 04:17:00.000,n,92,7.56,7.2,8.28,23.6,86.2,1010.82,5.92,0.7,0,0,0.025253
2022/01/08 04:18:00.003,n,15,6.48,4.32,7.92,23.6,86.3,1010.82,5.93,0.2,0,0,0.028725
2022/01/08 04:19:00.009,n,24,5.4,4.68,6.84,23.6,86.2,1010.82,5.93,0.3,0,0,0.030479
2022/01/08 04:20:00.000,n,86,6.84,5.4,8.28,23.6,86.2,1010.82,5.94,0.2,0,0,0.027885
2022/01/08 04:21:00.035,n,83,6.48,6.12,7.2,23.7,86.2,1010.82,5.94,0.1,0,0,0.025253
2022/01/08 04:22:00.000,n,83,9.36,8.28,10.8,23.6,86.1,1010.82,5.94,0.2,0,0,0.025253
2022/01/08 04:23:00.001,n,80,6.48,5.4,7.56,23.6,86.1,1010.82,5.95,0.2,0,0,0.028725
2022/01/08 04:24:00.000,n,81,10.08,9.36,10.8,23.6,86.1,1010.92,5.95,0.2,0,0,0.027885
2022/01/08 04:25:00.016,n,3,3.96,1.08,5.04,23.6,86.1,1010.92,5.96,0.3,0,0,0.027885
2022/01/08 04:26:00.005,n,38,2.88,2.52,3.24,23.6,86.2,1010.92,5.96,0.3,0,0,0.027885
2022/01/08 04:27:00.011,n,50,5.04,3.96,6.48,23.6,86.2,1010.92,5.96,0.1,0,0,0.031319
2022/01/08 04:28:00.001,n,67,6.12,5.76,7.2,23.6,86.2,1010.92,5.97,0.3,0,0,0.033951
2022/01/08 04:29:00.007,n,104,5.04,2.88,7.2,23.6,86.1,1010.92,5.97,0.2,0,0,0.034828
2022/01/08 04:30:00.014,n,120,10.8,9,12.24,23.6,86,1010.92,5.97,0,0,0,0.035667
2022/01/08 04:31:00.058,n,123,6.12,4.68,8.28,23.6,86.1,1011.02,5.99,0.9,0,0,0.035667
2022/01/08 04:32:00.000,n,75,12.24,10.8,12.96,23.6,86.1,1011.02,5.99,0,0,0,0.035667
2022/01/08 04:33:00.000,n,93,5.76,5.04,6.84,23.6,86.2,1011.02,6.02,0,0,0,0.034828
2022/01/08 04:34:00.004,n,86,6.12,5.76,6.84,23.6,86.2,1011.02,6.02,1.4,0,0,0.033951
2022/01/08 04:35:00.000,n,52,5.4,3.96,6.84,23.6,86.2,1011.12,6.02,0,0,0,0.037422
2022/01/08 04:36:00.000,n,32,7.92,6.12,9.36,23.5,86.2,1011.12,6.03,0.8,0,0,0.0383
2022/01/08 04:37:00.006,n,66,6.48,3.96,8.28,23.5,86.2,1011.02,6.03,0,0,0,0.042648
2022/01/08 04:38:00.002,n,69,3.24,2.52,4.32,23.5,86.1,1011.12,6.03,0,0,0,0.04528
2022/01/08 04:39:00.008,n,53,3.96,2.52,7.56,23.5,86.2,1011.12,6.03,0,0,0,0.046997
2022/01/08 04:40:00.000,n,82,7.56,5.04,7.92,23.5,86.2,1011.12,6.04,0,0,0,0.04612
2022/01/08 04:41:00.000,n,69,4.68,3.24,5.76,23.5,86.2,1011.22,6.04,0.2,0,0,0.053062
2022/01/08 04:42:00.000,n,60,7.92,5.4,9.72,23.5,86.2,1011.22,6.04,0.1,0,0,0.048752
2022/01/08 04:43:00.000,n,41,5.4,3.6,6.48,23.5,86.2,1011.22,6.07,1.9,0,0,0.054855